Regional Weather Roundup
Issued by NWS

Home | Current Version | Previous Version | Text Only | Print | Product List | Glossary Off
Versions: 1 2 3 4 5 6 7 8 9 10 11 12 13 14 15 16 17 18 19 20 21 22 23 24 25 26 27 28 29 30 31 32 33 34 35 36 37 38 39 40 41 42 43 44 45 46 47 48 49 50

000
ASUS43 KOAX 181510
RWRNE

WEATHER ROUNDUP FOR NEBRASKA
NATIONAL WEATHER SERVICE OMAHA NE
1000 AM CDT FRI APR 18 2014

NOTES: SATELLITE DATA IS BEING USED TO AUGMENT CLOUD COVER ABOVE
       12000 FEET.
       "FAIR" INDICATES FEW OR NO CLOUDS BELOW 12,000 FEET WITH NO
       SIGNIFICANT WEATHER AND/OR OBSTRUCTIONS TO VISIBILITY.

  * THESE STATIONS DO NOT REPORT WEATHER SUCH AS RAIN...SNOW OR FOG.

NEZ001>004-019>022-054>056-181600-
NEBRASKA PANHANDLE

CITY           SKY/WX    TMP DP  RH WIND       PRES   REMARKS
SCOTTSBLUFF    MOSUNNY   53  39  59 E9        29.92F
ALLIANCE       PTSUNNY   50  39  66 S12       29.92S
CHADRON        PTSUNNY   55  39  54 CALM      29.84F
KIMBALL        SUNNY     62  30  29 SW10      29.95S
SIDNEY         SUNNY     56  39  53 SW13      29.97S
$$

NEZ057>060-069>072-079>082-181600-
SOUTHWEST NEBRASKA

CITY           SKY/WX    TMP DP  RH WIND       PRES   REMARKS
NORTH PLATTE   MOSUNNY   49  38  65 S14       30.04F
IMPERIAL       MOSUNNY   50  37  61 S17       30.02F
LEXINGTON      SUNNY     51  41  69 S16G22    30.11F
MCCOOK         SUNNY     51  41  68 S15       30.09F
OGALLALA       MOSUNNY   48  37  64 SW12      30.01F
$$

NEZ005>010-023>029-035>040-094-181600-
NORTH CENTRAL NEBRASKA

CITY           SKY/WX    TMP DP  RH WIND       PRES   REMARKS
VALENTINE      SUNNY     53  37  54 S21G26    29.92F
AINSWORTH      SUNNY     53  38  57 S23G36    29.95F
BROKEN BOW     SUNNY     50  39  66 S25       30.07F
O`NEILL        SUNNY     55  38  52 S21G29    30.06F
ORD            SUNNY     51  37  58 S20G29    30.10F
THEDFORD       MOSUNNY   53  37  53 S20       29.98F
$$

NEZ041-046>049-061>064-073>077-083>087-181600-
SOUTH CENTRAL NEBRASKA

CITY           SKY/WX    TMP DP  RH WIND       PRES   REMARKS
GRAND ISLAND   SUNNY     53  37  54 S20       30.17S
AURORA         SUNNY     52  39  60 S18       30.18F
HASTINGS       SUNNY     51  36  56 S14G22    30.17S
HEBRON         SUNNY     53  36  51 S13       30.23F
HOLDREGE       SUNNY     51  39  65 S17G26    30.13F
KEARNEY *      SUNNY     52  39  62 S22       30.14F
YORK           SUNNY     52  36  54 S18       30.21S
$$

NEZ011>018-030>034-042>045-181600-
NORTHEAST NEBRASKA

CITY           SKY/WX    TMP DP  RH WIND       PRES   REMARKS
NORFOLK        SUNNY     53  36  52 S20       30.17F
ALBION         SUNNY     52  38  60 S17G23    30.16S
BLAIR          SUNNY     49  33  53 SE12      30.25S HAZE
COLUMBUS *     SUNNY     54  34  47 S15G23    30.21S
FREMONT        SUNNY     52  34  49 SE15      30.24F
TEKAMAH        SUNNY     50  33  52 SE15      30.25F HAZE
$$

NEZ050>053-065>068-078-088>093-181600-
SOUTHEAST NEBRASKA

CITY           SKY/WX    TMP DP  RH WIND       PRES   REMARKS
LINCOLN        MOSUNNY   53  35  50 S12       30.26F HAZE
OMAHA EPPLEY   SUNNY     48  33  56 S9        30.28S HAZE
BEATRICE       SUNNY     51  35  53 S12       30.26F HAZE
FALLS CITY     SUNNY     50  38  63 S9        30.30S HAZE
NEBRASKA CITY  SUNNY     50  36  58 S10       30.29S
PLATTSMOUTH    SUNNY     49  34  55 SE9       30.28F HAZE
$$

NEZ044-045-051>053-067-181600-
OMAHA AREA

CITY           SKY/WX    TMP DP  RH WIND       PRES   REMARKS
OMAHA EPPLEY   SUNNY     48  33  56 S9        30.28S HAZE
BLAIR          SUNNY     49  33  53 SE12      30.25S HAZE
FREMONT        SUNNY     52  34  49 SE15      30.24F
MILLARD        SUNNY     49  35  57 E9        30.27F HAZE
OFFUTT AFB     SUNNY     48  36  63 SE9       30.28S SMOKE
PLATTSMOUTH    SUNNY     49  34  55 SE9       30.28F HAZE
WAHOO          FAIR      51  33  50 S15       30.24F HAZE
$$



USA.gov is the U.S. government's official web portal to all federal, state and local government web resources and services.